Retour au catalogue

STARLINK-4405

ActifCommunicationsSSO
NORAD 53201·PAYLOAD·🇺🇸 United States

Lancé Jul 22, 2022 depuis Vandenberg Space Force Base

Loading…

Prochains Passages (prochaines 24 heures)

TLE

FraisSource: CelesTrak SupGP

Époque: Sep 15, 2026, 02:03 UTC

1 53201C 22084N   26258.08590278  .00286940  00000+0  74356-2 0  2582
2 53201  97.4964 323.6294 0001603  85.3673 340.6473 15.38934596    14

Suivez STARLINK-4405 en temps réel avec AllMySat

Download on the App Store